[[{"header":{"parameterUnit":"m.s-1","parameterCategory":1,"la1":30.2991,"la2":30.254,"lo1":-89.0895,"lo2":-89.0444,"dy":0.0017,"dx":0.0017,"nx":28,"ny":28,"refTime":"2025-08-30T21:00:00:Z","depth":0,"parameterNumber":2,"parameterNumberName":"U-component_of_WINDS"},"data":[0,0,0,0,0,0,0,0,0,0,0,0,0,0,0,0,0,0,0,0,0,0,0,0,0,0,0,0,0,0,0,0,0,0,0,0,0,0,0,0,0,0,0,0,0,0,0,0,0,0,0,0,0,0,0,0,0,0,-1.442,-1.4419,0,-1.4327,-1.4326,-1.4325,-1.4318,-1.4319,-1.432,-1.4321,-1.4224,-1.4221,-1.4217,0,0,0,0,0,0,0,0,0,0,0,0,0,-1.459,-1.4587,-1.442,-1.4419,-1.4418,-1.4327,-1.4326,-1.4325,-1.4318,-1.4319,-1.432,-1.4322,-1.4225,-1.4221,-1.4217,0,0,0,0,0,0,0,0,0,0,0,0,0,-1.4508,-1.4586,-1.442,-1.4403,-1.4401,-1.4327,-1.4326,-1.4324,-1.4318,-1.4319,-1.4321,-1.4322,-1.4227,-1.4222,-1.4216,-1.4153,0,0,-1.42,-1.4198,0,0,0,0,0,0,0,0,-1.4513,-1.4502,-1.4407,-1.4404,-1.4402,-1.4336,-1.435,-1.4267,-1.4317,-1.4349,-1.4321,-1.4323,-1.426,-1.4252,-1.4231,-1.4148,-1.4144,-1.42,-1.4196,-1.4194,-1.4193,0,0,0,0,0,0,0,-1.4519,-1.4506,-1.4383,-1.4406,-1.4402,-1.44,-1.439,-1.4334,-1.4297,-1.4347,-1.4346,-1.4335,-1.4259,-1.4236,-1.4229,-1.4142,-1.42,-1.4195,-1.4192,-1.419,-1.4003,-1.4001,0,0,0,0,0,0,-1.4528,-1.4511,-1.4386,-1.438,-1.4462,-1.4396,-1.4385,-1.4355,-1.4298,-1.429,-1.4334,-1.4335,-1.4245,-1.4235,-1.4225,-1.4147,-1.4194,-1.4189,-1.4186,-1.4005,-1.4003,-1.4001,0,0,0,0,0,0,-1.4532,-1.4517,-1.439,-1.4445,-1.4429,-1.4391,-1.4358,-1.4353,-1.433,-1.4288,-1.4281,-1.4318,-1.4245,-1.4233,-1.4171,-1.4144,-1.4187,-1.4182,-1.4007,-1.4004,-1.4002,-1.399,0,0,0,0,0,0,-1.4536,-1.4518,-1.4494,-1.4445,-1.4426,-1.4337,-1.4357,-1.435,-1.4321,-1.4322,-1.4271,-1.4264,-1.4246,-1.4179,-1.4166,-1.4137,-1.4178,-1.4009,-1.4006,-1.4002,-1.3993,-1.3988,-1.3983,0,0,0,0,0,-1.4543,-1.4494,-1.4493,-1.4478,-1.4395,-1.4336,-1.4325,-1.4305,-1.4319,-1.4294,-1.4267,-1.4266,-1.4149,-1.4173,-1.4158,-1.4127,-1.4011,-1.4007,-1.4003,-1.3995,-1.3989,-1.3983,0,0,0,0,0,0,-1.454,-1.4487,-1.4485,-1.4419,-1.4382,-1.4335,-1.4303,-1.4299,-1.4256,-1.4259,-1.4236,-1.4224,-1.4163,-1.4139,-1.4166,-1.4063,-1.4081,-1.4074,-1.4081,-1.4074,-1.4069,-1.4077,-1.4173,0,0,0,0,0,-1.4532,-1.4489,-1.4445,-1.4391,-1.4372,-1.4341,-1.4314,-1.4302,-1.4263,-1.4247,-1.4215,-1.4176,-1.4131,-1.4101,-1.4057,-1.399,-1.3979,-1.3961,-1.3956,-1.3953,-1.3947,-1.391,-1.3902,-1.3988,-1.3988,-1.3988,0,0,-1.4514,-1.448,-1.4454,-1.4389,-1.4359,-1.4315,-1.4328,-1.428,-1.4246,-1.4239,-1.4179,-1.4154,-1.411,-1.4045,-1.4015,-1.4023,-1.3921,-1.3948,-1.3945,-1.3941,-1.3905,-1.3897,-1.389,-1.3985,-1.3985,-1.3986,0,0,-1.446,-1.443,-1.4382,-1.4351,-1.4306,-1.4285,-1.4274,-1.4227,-1.421,-1.415,-1.4144,-1.4104,-1.4026,-1.3994,-1.3968,-1.3902,-1.3899,-1.3888,-1.3862,-1.3827,-1.382,-1.3814,-1.3791,-1.3783,-1.3882,-1.3882,-1.3882,0,-1.4443,-1.4377,-1.4357,-1.431,-1.4281,-1.4274,-1.4225,-1.4196,-1.4138,-1.4119,-1.4129,-1.4031,-1.4,-1.3928,-1.3913,-1.3891,-1.3878,-1.3894,-1.3822,-1.3816,-1.381,-1.3788,-1.3779,-1.3881,-1.3881,-1.3881,-1.3882,0,-1.4359,-1.4313,-1.4279,-1.4225,-1.4192,-1.4144,-1.4118,-1.4087,-1.4078,-1.4057,-1.3995,-1.3958,-1.3907,-1.3889,-1.3879,-1.3815,-1.3822,-1.3827,-1.3846,-1.3801,-1.378,-1.3771,-1.388,-1.388,-1.388,-1.3881,0,0,-1.43,-1.4235,-1.4223,-1.4199,-1.4148,-1.4112,-1.4063,-1.4014,-1.3988,-1.3948,-1.3907,-1.3842,-1.3847,-1.3817,-1.3804,-1.3773,-1.3724,-1.3782,-1.3781,-1.3773,-1.3652,-1.3648,-1.3639,-1.3722,-1.372,-1.3719,-1.3656,0,-1.424,-1.4154,-1.4136,-1.4062,-1.4019,-1.4011,-1.3969,-1.3933,-1.3912,-1.3872,-1.3848,-1.3802,-1.3812,-1.3794,-1.3763,-1.3736,-1.3699,-1.3741,-1.3683,-1.3681,-1.3695,-1.3627,-1.3623,-1.3566,-1.3647,-1.3646,-1.3645,0,-1.4158,-1.4118,-1.404,-1.3995,-1.3976,-1.3939,-1.3892,-1.3854,-1.3814,-1.38,-1.3767,-1.3758,-1.3707,-1.3728,-1.3658,-1.3686,-1.3662,-1.3645,-1.3643,-1.3637,-1.3661,-1.362,-1.3547,-1.3538,-1.3631,-1.3632,-1.3633,0,-1.4123,-1.4049,-1.3993,-1.3972,-1.3918,-1.3892,-1.3869,-1.383,-1.3801,-1.376,-1.3741,-1.3695,-1.3669,-1.3633,-1.3611,-1.3628,-1.3543,-1.3562,-1.3531,-1.3531,-1.3513,-1.3515,-1.3436,-1.3497,-1.3497,-1.3497,-1.3497,0,-1.4058,-1.4011,-1.3977,-1.3942,-1.3889,-1.3868,-1.3815,-1.3792,-1.3757,-1.3718,-1.3708,-1.3671,-1.3644,-1.3604,-1.3586,-1.3531,-1.352,-1.3507,-1.3503,-1.3508,-1.351,-1.3492,-1.3496,-1.3495,-1.3495,-1.3496,-1.3496,0,-1.401,-1.3985,-1.3924,-1.3879,-1.3866,-1.3829,-1.379,-1.3756,-1.3735,-1.3685,-1.3672,-1.3638,-1.359,-1.3565,-1.3504,-1.3493,-1.3431,-1.3429,-1.3445,-1.3443,-1.3414,-1.3417,-1.3321,-1.3307,-1.3377,-1.3377,-1.3376,0,-1.3971,-1.3934,-1.3885,-1.3859,-1.3835,-1.3792,-1.3763,-1.3741,-1.3711,-1.3662,-1.3634,-1.3586,-1.3546,-1.3469,-1.3439,-1.3393,-1.339,-1.3359,-1.3383,-1.339,-1.339,-1.3393,-1.3389,-1.3355,-1.3355,-1.3354,-1.3354,0,-1.3903,-1.3893,-1.3852,-1.3806,-1.3772,-1.3735,-1.3699,-1.3677,-1.3649,-1.3616,-1.3567,-1.3536,-1.3475,-1.3427,-1.3379,-1.3354,-1.3349,-1.3347,-1.3337,-1.3342,-1.3353,-1.3347,-1.3434,-1.3349,-1.3349,-1.335,-1.335,-1.335,-1.3858,-1.3826,-1.3787,-1.3741,-1.3711,-1.3678,-1.3644,-1.3619,-1.3577,-1.3526,-1.3515,-1.3464,-1.3424,-1.3359,-1.3334,-1.3293,-1.3299,-1.3285,-1.3281,-1.3278,-1.3278,-1.3359,-1.3284,-1.3284,-1.3284,-1.3284,-1.3284,0,-1.3791,-1.3765,-1.3724,-1.3673,-1.3638,-1.3636,-1.3596,-1.3566,-1.3521,-1.3485,-1.3446,-1.339,-1.3344,-1.331,-1.3263,-1.3237,-1.3234,-1.3225,-1.3227,-1.3222,-1.3274,-1.3288,-1.3229,-1.3229,-1.3229,-1.3229,-1.3229,-1.3229,-1.3751,-1.3696,-1.3681,-1.3612,-1.3586,-1.3536,-1.3513,-1.3482,-1.3453,-1.3391,-1.3353,-1.3331,-1.3296,-1.3247,-1.3204,-1.3196,-1.3179,-1.3171,-1.3162,-1.3212,-1.3218,-1.3224,-1.3236,-1.3167,-1.3167,-1.3113,-1.3113,-1.3112]},{"header":{"parameterUnit":"m.s-1","parameterCategory":1,"la1":30.2991,"la2":30.254,"lo1":-89.0895,"lo2":-89.0444,"dy":0.0017,"dx":0.0017,"nx":28,"ny":28,"refTime":"2025-08-30T21:00:00:Z","depth":0,"parameterNumber":3,"parameterNumberName":"V-component_of_WINDS"},"data":[0,0,0,0,0,0,0,0,0,0,0,0,0,0,0,0,0,0,0,0,0,0,0,0,0,0,0,0,0,0,0,0,0,0,0,0,0,0,0,0,0,0,0,0,0,0,0,0,0,0,0,0,0,0,0,0,0,0,-0.5538,-0.5537,0,-0.5447,-0.5446,-0.5445,-0.5492,-0.5494,-0.5496,-0.5499,-0.5402,-0.5397,-0.5393,0,0,0,0,0,0,0,0,0,0,0,0,0,-0.5749,-0.5744,-0.5538,-0.5537,-0.5536,-0.5448,-0.5446,-0.5445,-0.5491,-0.5494,-0.5497,-0.55,-0.5404,-0.5398,-0.5392,0,0,0,0,0,0,0,0,0,0,0,0,0,-0.5657,-0.5743,-0.5538,-0.5548,-0.5548,-0.5448,-0.5446,-0.5445,-0.5491,-0.5494,-0.5498,-0.5501,-0.5405,-0.5398,-0.5391,-0.5275,0,0,-0.5369,-0.5366,0,0,0,0,0,0,0,0,-0.5662,-0.565,-0.5548,-0.5547,-0.5547,-0.5485,-0.5485,-0.5388,-0.549,-0.5512,-0.5499,-0.5503,-0.5426,-0.5418,-0.5393,-0.527,-0.5266,-0.5369,-0.5364,-0.5361,-0.5359,0,0,0,0,0,0,0,-0.5669,-0.5654,-0.5502,-0.5546,-0.5546,-0.5557,-0.5548,-0.5467,-0.545,-0.5511,-0.5514,-0.5503,-0.5427,-0.5399,-0.5391,-0.5265,-0.5369,-0.5362,-0.5358,-0.5355,-0.5045,-0.5041,0,0,0,0,0,0,-0.5675,-0.5659,-0.5505,-0.5499,-0.5615,-0.555,-0.554,-0.5501,-0.5451,-0.5447,-0.55,-0.5505,-0.541,-0.5399,-0.5387,-0.525,-0.5361,-0.5354,-0.535,-0.5049,-0.5044,-0.504,0,0,0,0,0,0,-0.5679,-0.5661,-0.5509,-0.558,-0.5561,-0.5542,-0.5498,-0.5497,-0.547,-0.5443,-0.544,-0.5475,-0.5412,-0.5398,-0.5303,-0.5247,-0.5351,-0.5345,-0.5054,-0.5048,-0.5042,-0.4973,0,0,0,0,0,0,-0.5685,-0.5662,-0.5618,-0.5579,-0.5557,-0.5426,-0.5495,-0.5493,-0.5458,-0.5464,-0.5419,-0.5415,-0.5414,-0.5314,-0.5296,-0.5239,-0.5339,-0.5059,-0.5051,-0.5044,-0.498,-0.4966,-0.4953,0,0,0,0,0,-0.5693,-0.5601,-0.5616,-0.5597,-0.5502,-0.5423,-0.5411,-0.5413,-0.5453,-0.5409,-0.5392,-0.5416,-0.5256,-0.5304,-0.5284,-0.5224,-0.5062,-0.5053,-0.5045,-0.4987,-0.4969,-0.4954,0,0,0,0,0,0,-0.5632,-0.5596,-0.5612,-0.5504,-0.5467,-0.5431,-0.5375,-0.5394,-0.5343,-0.535,-0.5354,-0.5343,-0.5246,-0.5225,-0.5279,-0.511,-0.5165,-0.5152,-0.5128,-0.5111,-0.5097,-0.5105,-0.5333,0,0,0,0,0,-0.5606,-0.5546,-0.5517,-0.5425,-0.5406,-0.5394,-0.5359,-0.5365,-0.5325,-0.5309,-0.5285,-0.5245,-0.5186,-0.5147,-0.5091,-0.4977,-0.4969,-0.4927,-0.4913,-0.4902,-0.4891,-0.4832,-0.4814,-0.5011,-0.5011,-0.5011,0,0,-0.5552,-0.5525,-0.5486,-0.5413,-0.5384,-0.5322,-0.538,-0.5311,-0.5265,-0.5298,-0.5209,-0.519,-0.5145,-0.5042,-0.4995,-0.5022,-0.4835,-0.4891,-0.4882,-0.4877,-0.4821,-0.4803,-0.4786,-0.5005,-0.5006,-0.5007,0,0,-0.5423,-0.5395,-0.5317,-0.5288,-0.5245,-0.5238,-0.5219,-0.5181,-0.5171,-0.5081,-0.5106,-0.5051,-0.4948,-0.4917,-0.4887,-0.4748,-0.4769,-0.4729,-0.4658,-0.4601,-0.4586,-0.4572,-0.4525,-0.4508,-0.4718,-0.4718,-0.4718,0,-0.5361,-0.5269,-0.5274,-0.5205,-0.5172,-0.5201,-0.5123,-0.5094,-0.5034,-0.5011,-0.5041,-0.4916,-0.4887,-0.4779,-0.4745,-0.4719,-0.4699,-0.4735,-0.4588,-0.4574,-0.4561,-0.4516,-0.4498,-0.4713,-0.4714,-0.4714,-0.4715,0,-0.5196,-0.5132,-0.5074,-0.5019,-0.498,-0.4905,-0.4899,-0.4859,-0.4867,-0.4857,-0.4767,-0.4734,-0.4674,-0.4648,-0.4654,-0.454,-0.4559,-0.4588,-0.4644,-0.4538,-0.4496,-0.4479,-0.4707,-0.4709,-0.471,-0.4711,0,0,-0.5026,-0.4976,-0.4955,-0.4931,-0.4887,-0.4837,-0.4765,-0.4707,-0.4674,-0.4631,-0.4571,-0.4485,-0.4513,-0.448,-0.4483,-0.4433,-0.4328,-0.4469,-0.4468,-0.4446,-0.4203,-0.4183,-0.4163,-0.4341,-0.4338,-0.4335,-0.4208,0,-0.4896,-0.4771,-0.4775,-0.4659,-0.4601,-0.4629,-0.4566,-0.4532,-0.452,-0.4469,-0.4455,-0.4396,-0.4436,-0.4416,-0.4367,-0.4351,-0.428,-0.436,-0.4287,-0.4284,-0.43,-0.4141,-0.4118,-0.4,-0.4191,-0.4188,-0.4186,0,-0.4727,-0.4682,-0.4561,-0.4528,-0.4504,-0.4448,-0.4397,-0.4347,-0.4309,-0.4304,-0.4268,-0.428,-0.4207,-0.4264,-0.4164,-0.4218,-0.4189,-0.4176,-0.4172,-0.4167,-0.423,-0.4134,-0.3961,-0.3945,-0.416,-0.4162,-0.4164,0,-0.4619,-0.4527,-0.4444,-0.4423,-0.4381,-0.4341,-0.4322,-0.4288,-0.4254,-0.4208,-0.4187,-0.4133,-0.4103,-0.4061,-0.4059,-0.41,-0.3959,-0.4014,-0.3954,-0.3954,-0.3924,-0.3927,-0.3748,-0.3901,-0.3901,-0.3901,-0.3902,0,-0.4474,-0.4399,-0.4396,-0.4344,-0.4262,-0.4267,-0.4185,-0.4169,-0.4139,-0.4085,-0.4104,-0.4053,-0.4052,-0.4,-0.3997,-0.3916,-0.3902,-0.3897,-0.3897,-0.3896,-0.3897,-0.3878,-0.3887,-0.3897,-0.3898,-0.3899,-0.3899,0,-0.4339,-0.4333,-0.4245,-0.4214,-0.4204,-0.4145,-0.4119,-0.407,-0.4061,-0.3993,-0.3977,-0.3962,-0.3902,-0.3895,-0.3824,-0.3822,-0.3726,-0.3734,-0.374,-0.3742,-0.3683,-0.369,-0.3487,-0.3462,-0.3629,-0.3627,-0.3626,0,-0.4249,-0.4193,-0.4157,-0.4123,-0.4102,-0.4047,-0.4014,-0.4016,-0.398,-0.3934,-0.3892,-0.3834,-0.3788,-0.3691,-0.3673,-0.362,-0.3628,-0.3561,-0.362,-0.3622,-0.363,-0.3635,-0.3631,-0.355,-0.3548,-0.3547,-0.3545,0,-0.409,-0.409,-0.4042,-0.3993,-0.3953,-0.3914,-0.3877,-0.3848,-0.3846,-0.3805,-0.3745,-0.371,-0.3639,-0.3582,-0.353,-0.3509,-0.3527,-0.3527,-0.3511,-0.351,-0.3517,-0.3516,-0.3711,-0.3532,-0.3533,-0.3534,-0.3535,-0.3535,-0.3976,-0.3929,-0.3897,-0.3843,-0.3817,-0.3783,-0.3737,-0.3723,-0.3673,-0.3618,-0.3621,-0.3556,-0.3521,-0.3453,-0.3429,-0.3377,-0.34,-0.3375,-0.337,-0.3364,-0.336,-0.3524,-0.3367,-0.3368,-0.3368,-0.3368,-0.3369,0,-0.3821,-0.3802,-0.3752,-0.3703,-0.366,-0.3682,-0.3643,-0.3607,-0.3549,-0.3516,-0.3472,-0.3404,-0.3349,-0.3328,-0.3275,-0.3238,-0.3245,-0.3224,-0.3228,-0.3223,-0.3341,-0.3362,-0.3219,-0.3219,-0.3219,-0.3219,-0.3219,-0.3219,-0.3735,-0.3657,-0.3654,-0.3564,-0.3545,-0.3483,-0.3459,-0.3428,-0.3402,-0.3327,-0.3282,-0.3269,-0.3241,-0.3186,-0.3138,-0.3133,-0.3113,-0.3089,-0.3088,-0.3199,-0.3215,-0.3229,-0.3249,-0.3084,-0.3084,-0.2975,-0.2974,-0.2973]}]]